Overview Statistics Trail Chart Weather Telemetry Raw packets
 

This is the latest recevied weather packets stored in our database for station/object SP6KBU-12. If no packets are shown the sender has not sent any weather packets the latest 10 day(s).

<< 7 8 9 10 11 12 13 >>
Time Temp. Humidity Pressure Rain* Wind** Luminosity Snow
1788433585 23.33° C 43% 1021.5 hPa - - - -
1788432685 24.44° C 40% 1021.5 hPa - - - -
1788431784 23.33° C 38% 1021.6 hPa - - - -
1788430884 23.33° C 42% 1021.8 hPa - - - -
1788429984 23.33° C 41% 1021.9 hPa - - - -
1788429084 23.89° C 41% 1022 hPa - - - -
1788428216 24.44° C 39% 1022 hPa - - - -
1788428183 24.44° C 39% 1022 hPa - - - -
1788427283 24.44° C 47% 1022 hPa - - - -
1788426382 24.44° C 40% 1022 hPa - - - -
1788425482 24.44° C 44% 1022.3 hPa - - - -
1788424615 23.33° C 51% 1022.3 hPa - - - -
1788424580 23.33° C 51% 1022.3 hPa - - - -
1788423680 22.78° C 59% 1022.3 hPa - - - -
1788422779 21.67° C 52% 1022.3 hPa - - - -
1788421879 20.56° C 61% 1022.3 hPa - - - -
1788420978 20° C 63% 1022.4 hPa - - - -
1788420078 18.89° C 61% 1022.3 hPa - - - -
1788419178 18.33° C 65% 1022.2 hPa - - - -
1788418278 17.22° C 68% 1022.1 hPa - - - -
1788417377 16.67° C 71% 1022.2 hPa - - - -
1788416477 15.56° C 73% 1022.2 hPa - - - -
1788415577 15° C 75% 1022.2 hPa - - - -
1788414677 15° C 77% 1022.1 hPa - - - -
1788413777 14.44° C 78% 1022 hPa - - - -

* Rain since midnight (hover to see other rain measurements)
** Current wind speed in m/s (hover to see current wind gust speed)